Погода в Биде

Нигерия     9°05′13″N   5°59′34″E
темп.,
°C
ветер,
м/с
пор.,
м/с
влажн.,
%
обл.,
%
осадки,
мм/ч
давл.,
гПа
погр.,
м
19 января, вт
вт1901:00+27св4111728 0.0 1011324
04:00+23с36218 0.0 1010117
07:00+21ссв242049 0.0 101270
10:00+30всв361399 0.0 1013800
13:00+37в34991 0.0 10101930
16:00+39в2397 0.0 10062766
19:00+32сз11143 0.0 100724
22:00+28ссв23170 0.0 101024
20 января, ср
ср2001:00+26ссв39150 0.0 1010246
04:00+23ссв36160 0.0 1010118
07:00+21св121926 0.0 101223
10:00+31всв461333 0.0 1013804
13:00+36юв331116 0.0 10111794
16:00+39вюв12100 0.0 10072607
19:00+31сз11150 0.0 100824
22:00+28с11170 0.0 101024
21 января, чт
чт2101:00+26ссв411170 0.0 1010342
04:00+22ссв242258 0.0 100982
07:00+21ссв222479 0.0 101223
10:00+30в351589 0.0 1013698
13:00+37ююв221161 0.0 10101533
16:00+40вюв1297 0.0 10072559
19:00+31зсз011417 0.0 100824
22:00+30сз121629 0.0 101024
22 января, пт
пт2201:00+25св231915 0.0 101057
04:00+22ссв242238 0.0 101076
07:00+20ссв122447 0.0 101223
10:00+30в341452 0.0 1013688
13:00+36ююв331127 0.0 10101529
16:00+39ююв11100 0.0 10072453
19:00+31з12140 0.0 100824
22:00+30ссз12160 0.0 101024
23 января, сб
сб2301:00+26ссв39170 0.0 1010230
04:00+22с12190 0.0 101023
07:00+21с221918 0.0 101133
10:00+29в241325 0.0 1012671
13:00+36ююв341137 0.0 10091445
16:00+39вюв11944 0.0 10062462
19:00+31зсз011451 0.0 100724
22:00+30сз221510 0.0 101024